{"data":{"norad_id":53178,"epoch":"2026-09-20T04:00:03.000096Z","epoch_age_seconds":100967,"freshness":"FRESH","line1":"1 53178U 22083AY  26263.16670139  .00077182  00000+0  36258-2 0  9991","line2":"2 53178  53.1598  10.0760 0002323  60.5032 132.3042 15.18942212  5844","mean_motion":15.18942212,"eccentricity":0.0002323,"inclination_deg":53.1598,"raan_deg":10.076,"arg_perigee_deg":60.5032,"mean_anomaly_deg":132.3042,"bstar":0.0036258,"rev_number":584,"period_min":94.802816632763,"perigee_km":507.43634376665,"apogee_km":510.63612445122,"semimajor_km":6887.1732341089,"source":"CELESTRAK","updated_at":"2026-09-20T09:00:40.187333Z"}}